Back to catalog

USA 475

AliveMilitaryVLEO
NORAD 62544·PAYLOAD·🇺🇸 United States

Launched Jan 10, 2025 from Vandenberg Space Force Base

Loading…

Next Passes (next 24 hours)

TLE

StaleSource: Mike McCants

Epoch: Sep 1, 2026, 02:02 UTC

1 62544U 25005N   26244.08535275 0.00000000  00000-0  00000-0 0    09
2 62544  70.0256 226.3749 0003000 188.7218 171.2782 14.96713454    06

Track USA 475 in real time with AllMySat

Download on the App Store